Location: Sungai Balanum
(2.7000°N, 114.0333°E)
Time: 09:14:25
(UTC+00:00)

Daily predictions for brighter satellites

Satellite Brightness Start Highest point End
(mag) Time Altitude Azimuth Time Altitude Azimuth Time Altitude Azimuth
Ariane H10 4.5 12:40:14 10° WSW 12:54:21 37° SSW 12:54:21 37° SSW
Ariane H10+ 4.3 19:31:00 42° ESE 19:31:00 42° ESE 19:33:35 10° E
ARIANE 5 DEB (SYLDA) 4.3 19:43:40 60° ENE 19:43:40 60° ENE 19:47:04 10° E
Cosmos 1553 Rocket 4.3 19:59:47 10° S 20:05:47 62° E 20:11:50 10° NNE
USA 267 3.5 20:17:35 10° NE 20:24:03 66° SE 20:27:55 26° SSW
Cosmos 1470 Rocket 4.1 20:27:14 10° N 20:31:28 55° E 20:35:43 10° SSE
NOSS 3-4 (A) 3.1 20:31:44 45° SSW 20:33:40 89° WNW 20:39:25 10° NNE
NOSS 3-4 (C) 3.2 20:31:44 43° SSW 20:33:48 89° ESE 20:39:32 10° NNE
Cosmos 2278 Rocket 2.3 20:29:09 12° N 20:34:19 74° ENE 20:39:57 10° SSE
Meteor 1-14 Rocket 4.0 20:32:46 10° N 20:38:21 73° W 20:43:52 10° S
ATLAS 2AS CENTAUR R/B 4.2 20:31:37 10° S 20:38:32 40° ESE 20:45:41 10° NE
OAO 3 Rocket 4.0 20:37:47 37° S 20:38:59 45° SE 20:43:29 10° ENE
Cosmos 1417 Rocket 4.3 20:35:53 10° S 20:42:07 73° W 20:48:16 10° N
Ariane H10 3.3 20:43:29 41° NE 20:43:29 41° NE 20:47:35 10° ENE
ATLAS 5 CENTAUR R/B 4.4 20:40:52 10° NNE 20:43:46 28° E 20:50:47 10° SE
Ariane H10 4.1 20:44:50 23° SSE 20:44:50 23° SSE 20:46:42 10° ESE
FALCON 9 DEB 4.2 20:44:40 37° ESE 20:44:40 37° ESE 20:47:10 10° NE
MOS 1 Rocket 3.2 20:40:11 10° S 20:45:10 77° W 20:49:48 10° NNW
GPS 2-17 Rocket1 2.7 20:46:29 75° SW 20:46:40 77° SSW 20:51:02 10° ESE
Yuri Rocket 3.6 20:48:23 38° NNW 20:48:23 38° NNW 20:51:55 10° NE
Meteor 1-5 Rocket 3.9 20:44:33 10° NNW 20:49:49 70° W 20:55:15 10° S
Delta 7925 Rocket 4.0 20:50:10 34° NNW 20:50:16 34° NNW 20:54:28 10° NE
ASTRO E2 4.0 20:52:19 26° S 20:52:19 26° S 20:54:57 10° SSE
ARIANE 5 R/B 2.5 20:48:35 35° W 20:51:39 85° S 20:54:35 10° E
ATLAS CENTAUR R/B 3.1 20:47:01 22° SW 20:52:24 47° WNW 20:56:28 10° N
Okean 1 4.0 20:51:16 10° S 20:55:08 54° E 20:58:59 10° NNE
Lacrosse 5 1.8 20:55:30 32° SW 20:57:47 67° WNW 21:02:49 10° NNE
Cosmos 1932 4.5 20:53:32 20° NW 20:57:54 57° WSW 21:04:06 10° S
Intelsat 5-2 Rocket 3.3 20:57:24 32° S 20:58:07 39° SSE 21:02:28 10° ENE
Aurora 2 Rocket 3.2 20:59:06 32° WNW 21:01:43 86° NNE 21:09:07 10° ESE
Cosmos 2228 Rocket 3.5 21:02:49 37° WSW 21:03:23 38° W 21:07:35 10° NNW
H-2A R/B 3.2 21:01:29 10° NNE 21:05:18 64° E 21:09:06 10° S
Cosmos 1244 Rocket 4.4 21:01:15 10° N 21:07:21 69° W 21:13:27 10° S
Meteor 1-11 Rocket 4.1 21:02:56 10° N 21:08:42 70° E 21:14:20 10° SSE
S3M 4.2 21:03:26 10° SSW 21:09:35 50° W 21:15:42 10° NNW
FALCON 9 DEB 3.1 21:10:55 37° WSW 21:11:58 56° NW 21:15:18 10° NNE
CZ-3 R/B 3.9 20:52:33 21° WNW 21:13:42 47° SW 21:22:49 10° SSE
BLOCK DM-SL R/B 3.1 21:11:14 23° WSW 21:14:24 65° S 21:18:33 10° E
Cosmos 968 Rocket 3.8 21:14:04 10° N 21:19:12 68° ENE 21:24:18 10° SSE
Spelda 30 3.5 21:20:57 19° SW 21:21:57 25° S 21:24:05 10° ESE
FALCON 9 DEB 3.9 21:26:42 22° W 21:27:30 25° NW 21:30:04 10° N
Meteor 2-4 Rocket 4.3 21:25:31 10° S 21:31:21 67° E 21:37:01 10° NNE
Cosmos 1707 Rocket 3.9 21:28:10 10° SSW 21:32:20 41° W 21:36:31 10° NNW
Cosmos 1862 Rocket 3.5 21:28:21 10° S 21:32:41 88° E 21:36:59 10° N
Meteor 2-17 Rocket 4.4 21:29:52 10° N 21:35:58 84° W 21:42:04 10° S
FALCON 9 R/B 4.0 21:36:51 10° SSW 21:40:14 14° S 21:46:29 10° SE
YAOGAN 6 3.5 21:41:15 10° NNW 21:44:10 26° W 21:47:07 10° SW
Meteor PRIRODA 4.0 21:40:47 10° NNE 21:44:28 72° E 21:48:10 10° S
Meteor 1-31 Rocket 3.8 21:45:07 10° NNW 21:48:15 24° WNW 21:51:22 10° SW
ARIANE 5 R/B 4.1 21:36:18 10° W 22:16:58 72° N 22:22:47 10° E
